TimeEDT,TemperatureF,Dew PointF,Humidity,Sea Level PressureIn,VisibilityMPH,Wind Direction,Wind SpeedMPH,Gust SpeedMPH,PrecipitationIn,Events,Conditions,WindDirDegrees,DateUTC
12:15 AM,26.6,19.4,74,30.26,10.0,West,5.8,-,N/A,,Clear,280,2013-03-29 04:15:00
12:34 AM,24.8,19.4,80,30.26,10.0,West,5.8,-,N/A,,Clear,270,2013-03-29 04:34:00
12:54 AM,26.6,21.2,80,30.26,10.0,WSW,4.6,-,N/A,,Clear,250,2013-03-29 04:54:00
1:15 AM,24.8,21.2,86,30.26,10.0,West,8.1,-,N/A,,Clear,260,2013-03-29 05:15:00
1:34 AM,24.8,21.2,86,30.25,10.0,West,8.1,-,N/A,,Clear,260,2013-03-29 05:34:00
1:55 AM,24.8,21.2,86,30.25,10.0,West,6.9,-,N/A,,Clear,260,2013-03-29 05:55:00
2:15 AM,24.8,21.2,86,30.25,10.0,West,6.9,-,N/A,,Clear,260,2013-03-29 06:15:00
2:34 AM,24.8,21.2,86,30.25,10.0,West,6.9,-,N/A,,Clear,270,2013-03-29 06:34:00
2:55 AM,24.8,21.2,86,30.25,10.0,West,6.9,-,N/A,,Clear,270,2013-03-29 06:55:00
3:15 AM,24.8,21.2,86,30.25,10.0,West,6.9,-,N/A,,Clear,270,2013-03-29 07:15:00
3:34 AM,24.8,21.2,86,30.25,10.0,West,6.9,-,N/A,,Clear,260,2013-03-29 07:34:00
3:55 AM,24.8,21.2,86,30.25,10.0,West,5.8,-,N/A,,Clear,260,2013-03-29 07:55:00
4:15 AM,24.8,21.2,86,30.25,10.0,West,6.9,-,N/A,,Clear,260,2013-03-29 08:15:00
4:34 AM,23.0,19.4,86,30.25,10.0,West,5.8,-,N/A,,Clear,260,2013-03-29 08:34:00
4:55 AM,24.8,21.2,86,30.25,10.0,West,5.8,-,N/A,,Clear,260,2013-03-29 08:55:00
5:14 AM,24.8,21.2,86,30.25,10.0,West,5.8,-,N/A,,Clear,260,2013-03-29 09:14:00
5:35 AM,24.8,21.2,86,30.25,10.0,West,5.8,-,N/A,,Clear,260,2013-03-29 09:35:00
5:54 AM,24.8,19.4,80,30.24,10.0,West,5.8,-,N/A,,Clear,270,2013-03-29 09:54:00
6:14 AM,24.8,19.4,80,30.24,10.0,West,5.8,-,N/A,,Clear,270,2013-03-29 10:14:00
6:35 AM,24.8,19.4,80,30.25,10.0,West,6.9,-,N/A,,Clear,280,2013-03-29 10:35:00
6:54 AM,23.0,19.4,86,30.25,10.0,West,8.1,-,N/A,,Clear,270,2013-03-29 10:54:00
7:15 AM,23.0,19.4,86,30.25,10.0,West,6.9,-,N/A,,Clear,270,2013-03-29 11:15:00
7:35 AM,24.8,19.4,80,30.25,10.0,West,8.1,-,N/A,,Clear,280,2013-03-29 11:35:00
7:54 AM,24.8,19.4,80,30.25,10.0,West,5.8,-,N/A,,Clear,270,2013-03-29 11:54:00
8:15 AM,24.8,19.4,80,30.26,10.0,West,5.8,-,N/A,,Clear,260,2013-03-29 12:15:00
8:35 AM,24.8,19.4,80,30.26,10.0,West,6.9,-,N/A,,Clear,260,2013-03-29 12:35:00
8:54 AM,26.6,19.4,74,30.26,10.0,West,6.9,-,N/A,,Clear,270,2013-03-29 12:54:00
9:15 AM,28.4,21.2,74,30.26,10.0,West,8.1,-,N/A,,Clear,280,2013-03-29 13:15:00
9:35 AM,30.2,24.8,80,30.26,10.0,West,8.1,-,N/A,,Clear,280,2013-03-29 13:35:00
9:54 AM,32.0,24.8,75,30.26,10.0,West,5.8,-,N/A,,Clear,280,2013-03-29 13:54:00
10:15 AM,33.8,24.8,70,30.26,10.0,West,4.6,-,N/A,,Clear,280,2013-03-29 14:15:00
10:34 AM,35.6,26.6,70,30.26,10.0,West,4.6,-,N/A,,Clear,270,2013-03-29 14:34:00
10:54 AM,37.4,26.6,65,30.25,10.0,West,6.9,-,N/A,,Clear,270,2013-03-29 14:54:00
11:15 AM,39.2,23.0,52,30.25,10.0,WNW,9.2,-,N/A,,Clear,300,2013-03-29 15:15:00
11:34 AM,41.0,21.2,45,30.25,10.0,NNW,8.1,-,N/A,,Clear,330,2013-03-29 15:34:00
11:55 AM,42.8,19.4,39,30.25,10.0,NNW,10.4,-,N/A,,Clear,340,2013-03-29 15:55:00
12:14 PM,42.8,21.2,42,30.25,10.0,North,9.2,-,N/A,,Clear,360,2013-03-29 16:14:00
12:55 PM,44.6,19.4,37,30.25,10.0,NW,4.6,-,N/A,,Clear,310,2013-03-29 16:55:00
1:14 PM,44.6,17.6,34,30.24,10.0,WNW,5.8,-,N/A,,Clear,300,2013-03-29 17:14:00
1:35 PM,44.6,17.6,34,30.24,10.0,NW,4.6,-,N/A,,Scattered Clouds,320,2013-03-29 17:35:00
1:54 PM,44.6,19.4,37,30.23,10.0,WNW,12.7,-,N/A,,Scattered Clouds,290,2013-03-29 17:54:00
2:15 PM,44.6,17.6,34,30.23,10.0,NW,10.4,-,N/A,,Clear,310,2013-03-29 18:15:00
2:34 PM,44.6,21.2,39,30.23,10.0,West,8.1,-,N/A,,Clear,260,2013-03-29 18:34:00
2:54 PM,44.6,19.4,37,30.22,10.0,West,9.2,-,N/A,,Clear,280,2013-03-29 18:54:00
3:15 PM,44.6,17.6,34,30.22,10.0,NW,6.9,-,N/A,,Clear,320,2013-03-29 19:15:00
3:34 PM,44.6,17.6,34,30.21,10.0,NW,8.1,-,N/A,,Clear,320,2013-03-29 19:34:00
3:55 PM,44.6,19.4,37,30.21,10.0,West,8.1,-,N/A,,Clear,260,2013-03-29 19:55:00
4:15 PM,44.6,17.6,34,30.21,10.0,West,9.2,-,N/A,,Clear,280,2013-03-29 20:15:00
4:34 PM,44.6,19.4,37,30.20,10.0,West,9.2,-,N/A,,Clear,270,2013-03-29 20:34:00
4:55 PM,44.6,17.6,34,30.20,10.0,NW,5.8,-,N/A,,Clear,310,2013-03-29 20:55:00
5:14 PM,44.6,17.6,34,30.20,10.0,West,5.8,-,N/A,,Clear,280,2013-03-29 21:14:00
5:34 PM,44.6,17.6,34,30.20,10.0,WNW,10.4,17.3,N/A,,Clear,300,2013-03-29 21:34:00
5:55 PM,44.6,17.6,34,30.19,10.0,West,10.4,-,N/A,,Clear,280,2013-03-29 21:55:00
6:14 PM,44.6,15.8,31,30.19,10.0,NNW,9.2,-,N/A,,Clear,330,2013-03-29 22:14:00
6:34 PM,44.6,15.8,31,30.20,10.0,NW,8.1,-,N/A,,Clear,310,2013-03-29 22:34:00
6:55 PM,42.8,17.6,36,30.20,10.0,NW,5.8,-,N/A,,Clear,320,2013-03-29 22:55:00
7:14 PM,44.6,15.8,31,30.20,10.0,NNW,5.8,-,N/A,,Clear,330,2013-03-29 23:14:00
7:35 PM,44.6,15.8,31,30.20,10.0,Calm,Calm,-,N/A,,Clear,0,2013-03-29 23:35:00
7:55 PM,42.8,15.8,34,30.19,10.0,Calm,Calm,-,N/A,,Clear,0,2013-03-29 23:55:00
8:14 PM,41.0,15.8,36,30.19,10.0,Calm,Calm,-,N/A,,Clear,0,2013-03-30 00:14:00
8:35 PM,41.0,15.8,36,30.19,10.0,Calm,Calm,-,N/A,,Clear,0,2013-03-30 00:35:00
8:54 PM,33.8,19.4,56,30.19,10.0,Calm,Calm,-,N/A,,Clear,0,2013-03-30 00:54:00
9:15 PM,35.6,19.4,52,30.20,10.0,SSW,4.6,-,N/A,,Clear,210,2013-03-30 01:15:00
9:35 PM,35.6,19.4,52,30.20,10.0,SW,5.8,-,N/A,,Clear,230,2013-03-30 01:35:00
9:54 PM,35.6,19.4,52,30.20,10.0,WSW,5.8,-,N/A,,Clear,240,2013-03-30 01:54:00
10:15 PM,30.2,19.4,64,30.19,10.0,SSW,5.8,-,N/A,,Clear,210,2013-03-30 02:15:00
10:34 PM,32.0,19.4,60,30.19,10.0,SW,8.1,-,N/A,,Clear,230,2013-03-30 02:34:00
10:54 PM,33.8,19.4,56,30.19,10.0,SW,6.9,-,N/A,,Clear,230,2013-03-30 02:54:00
11:15 PM,33.8,19.4,56,30.19,10.0,SW,6.9,-,N/A,,Clear,230,2013-03-30 03:15:00
11:34 PM,33.8,19.4,56,30.19,10.0,SW,6.9,-,N/A,,Clear,230,2013-03-30 03:34:00
11:54 PM,32.0,19.4,60,30.19,10.0,SW,5.8,-,N/A,,Clear,230,2013-03-30 03:54:00